DRAGON CRS-26

Last updated on Wed Jan 11 2023 00:02:06 GMT+0000 (Coordinated Universal Time)

1 54371U 22159A 23010.54708135 .00374411 11266-4 32114-3 0 9992 2 54371 51.6452 29.2429 0133493 156.5799 338.4811 15.96634536 6932

Satellite not in orbit